This is the latest recevied weather packets stored in our database for station/object 9A3XK-13. If no packets are shown the sender has not sent any weather packets the latest 10 day(s).
| Time | Temp. | Humidity | Pressure | Rain* | Wind** | Luminosity | Snow |
|---|---|---|---|---|---|---|---|
| 1777847415 | 13.33° C | 53% | 1018.3 hPa | 0 mm | - | 0 W/m² | - |
| 1777847117 | 13.33° C | 54% | 1018.3 hPa | 0 mm | - | 0 W/m² | - |
| 1777846817 | 13.33° C | 54% | 1018.4 hPa | 0 mm | - | 0 W/m² | - |
| 1777845316 | 13.89° C | 54% | 1018.4 hPa | 0 mm | - | 0 W/m² | - |
| 1777844116 | 13.89° C | 53% | 1018.3 hPa | 0 mm | - | 0 W/m² | - |
| 1777843216 | 14.44° C | 53% | 1018.3 hPa | 0 mm | - | 0 W/m² | - |
| 1777842916 | 14.44° C | 53% | 1018.2 hPa | 0 mm | - | 0 W/m² | - |
| 1777842316 | 14.44° C | 52% | 1018.2 hPa | 0 mm | - | 0 W/m² | - |
| 1777842016 | 14.44° C | 52% | 1018.2 hPa | 0 mm | - | 0 W/m² | - |
| 1777841716 | 14.44° C | 52% | 1018.1 hPa | 0 mm | - | 0 W/m² | - |
| 1777840517 | 15° C | 52% | 1018 hPa | 0 mm | - | 0 W/m² | - |
| 1777840216 | 15° C | 52% | 1018 hPa | 0 mm | - | 0 W/m² | - |
| 1777839916 | 15° C | 52% | 1018 hPa | 0 mm | - | 0 W/m² | - |
| 1777839616 | 15.56° C | 52% | 1018 hPa | 0 mm | - | 0 W/m² | - |
| 1777839317 | 15.56° C | 51% | 1018 hPa | 0 mm | - | 0 W/m² | - |
| 1777837521 | 16.11° C | 50% | 1018 hPa | 0 mm | - | 0 W/m² | - |
| 1777836316 | 16.11° C | 49% | 1018 hPa | 0 mm | - | 0 W/m² | - |
| 1777834216 | 17.78° C | 46% | 1017.6 hPa | 0 mm | - | 0 W/m² | - |
| 1777833016 | 18.33° C | 43% | 1017.4 hPa | 0 mm | - | 0 W/m² | - |
| 1777832416 | 18.89° C | 43% | 1017.3 hPa | 0 mm | - | 0 W/m² | - |
| 1777830916 | 20° C | 42% | 1017.2 hPa | 0 mm | - | 5 W/m² | - |
| 1777828516 | 21.67° C | 38% | 1017.1 hPa | 0 mm | - | 22 W/m² | - |
| 1777827016 | 22.78° C | 36% | 1017.1 hPa | 0 mm | - | 107 W/m² | - |
| 1777825816 | 22.78° C | 35% | 1017.1 hPa | 0 mm | - | 171 W/m² | - |
| 1777825216 | 22.78° C | 35% | 1017.1 hPa | 0 mm | - | 206 W/m² | - |
* Rain latest hour (hover to see other rain measurements)
** Current wind speed in m/s (hover to see current wind gust speed)